Regional Weather Roundup
Issued by NWS

Home | Current Version | Previous Version | Graphics & Text | Print | Product List | Glossary On
Versions: 1 2 3 4 5 6 7 8 9 10 11 12 13 14 15 16 17 18 19 20 21 22 23 24 25 26 27 28 29 30 31 32 33 34 35 36 37 38 39 40 41 42 43 44 45 46 47 48 49 50
000
ASUS43 KLOT 272200
RWRIL

ILLINOIS REGIONAL WEATHER ROUNDUP
NATIONAL WEATHER SERVICE CHICAGO/ROMEOVILLE IL
500 PM CDT WED MAY 27 2015

NOTE: "FAIR" INDICATES FEW OR NO CLOUDS BELOW 12,000 FEET WITH NO
SIGNIFICANT WEATHER AND/OR OBSTRUCTIONS TO VISIBILITY.

* THESE STATIONS ARE NOT UNDER NWS QUALITY CONTROL. THEY ALSO MAY NOT
  REPORT WEATHER SUCH AS PRECIPITATION OR FOG.

ILZ001-002-007-009-015-016-024-272300-
NORTHWEST ILLINOIS

CITY           SKY/WX    TMP DP  RH WIND       PRES   REMARKS
MOLINE         MOSUNNY   79  56  45 NW7       30.05R HX  80
STERLING*      SUNNY     79  57  47 NW9       30.06R HX  80
$$

ILZ003-004-008-010-011-017-018-272300-
NORTH CENTRAL ILLINOIS

CITY           SKY/WX    TMP DP  RH WIND       PRES   REMARKS
ROCKFORD       MOSUNNY   76  54  46 NW8       30.06R
$$

ILZ005-006-012>014-019>023-272300-
NORTHEAST ILLINOIS

CITY           SKY/WX    TMP DP  RH WIND       PRES   REMARKS
CHICAGO-OHARE  PTSUNNY   73  55  53 NW12      30.02S
CHICAGO-MIDWAY PTSUNNY   73  56  54 NW12      30.02S
AURORA         MOSUNNY   75  55  49 NW10      30.04R
WAUKEGAN       MOSUNNY   72  57  59 NW8       30.01S
DUPAGE AIRPORT SUNNY     73  57  57 N9        30.03R
WHEELING       MOSUNNY   72  57  59 NW7       30.04R
NORTHERLY ISL    N/A     72  53  51 W10         N/A
$$

LMZ740>746-272300-
SOUTHERN LAKE MICHIGAN

STATION/POSITION SKY/WX   TEMP    WIND        PRES    VSBY  WAVE
                          AIR SEA DIR/SP/G                  HT/PER
                          (F)     (DEG/KT/KT) (MB)    (MI)  (FT/S)
SOUTHERN BUOY              49 38  250/  6/  8 1016.5          1
HARRISON CRIB              68     300/ 14/ 17   N/A
BURNHAM HARBOR             70     280/ 11/ 15   N/A
MICHIGAN CITY              61     320/ 17/ 19   N/A
MICHIGAN CITY 6N           57 52  350/ 10/ 14   N/A           2/ 3
ST. JOSEPH                 58 56  320/ 10/ 12   N/A           1/ 3
$$

ILZ025>027-034>036-040-047-049-050-058-095>099-272300-
WEST-CENTRAL ILLINOIS

CITY           SKY/WX    TMP DP  RH WIND       PRES   REMARKS
QUINCY         MOSUNNY   79  55  43 N7        30.08R
$$

ILZ028>032-037-038-041>044-048-051>054-059>061-272300-
CENTRAL ILLINOIS

CITY           SKY/WX    TMP DP  RH WIND       PRES   REMARKS
DECATUR        MOSUNNY   78  58  49 NW15      30.06S
PEORIA         MOSUNNY   81  56  42 N8        30.06S HX  81
SPRINGFIELD    MOSUNNY   80  59  48 NW7       30.08R HX  81
TAYLORVILLE    NOT AVBL
$$

ILZ033-039-045-046-055>057-062-063-272300-
EAST-CENTRAL ILLINOIS

CITY           SKY/WX    TMP DP  RH WIND       PRES   REMARKS
CHAMPAIGN      MOSUNNY   79  58  48 W17       30.05R HX  80
$$

ILZ079-100>102-272300-
SOUTHWEST ILLINOIS

CITY           SKY/WX    TMP DP  RH WIND       PRES   REMARKS
BELLEVILLE     MOSUNNY   83  63  51 NW10G17   30.04F HX  84
CAHOKIA*       MOSUNNY   82  60  47 W6        30.05F HX  82
$$

ILZ064>066-069>071-074>076-080>082-084>086-088>090-092>094-272300-
SOUTH-CENTRAL ILLINOIS

CITY           SKY/WX    TMP DP  RH WIND       PRES   REMARKS
CARBONDALE     PTSUNNY   79  68  69 SW10      30.07S HX  81
MARION         PTSUNNY   79  68  69 MISG      30.08S HX  81
MT. VERNON     PTSUNNY   81  63  54 W9        30.08S HX  82
$$

ILZ067-068-072-073-078-083-087-091-272300-
SOUTHEAST ILLINOIS

CITY           SKY/WX    TMP DP  RH WIND       PRES   REMARKS
LAWRENCEVILLE  PTSUNNY   82  61  48 SW9       30.06S HX  83
$$

ABBREVIATIONS USED IN REMARKS
   TC - TEMPERATURE IN CELSIUS
  WCI - WIND CHILL INDEX
   HX - HEAT INDEX
  VSB - VISIBILITY
$$



USA.gov is the U.S. government's official web portal to all federal, state and local government web resources and services.